Regional Weather Roundup
Issued by NWS Midland/Odessa, TX

Skip options and go directly to product.
Home | Oldest Version | Next Version | Current Version | All | Text Only | Save Text | Print | Product List | Glossary On

Skip product version selection by date and time.   
706
ASUS44 KMAF 061501
RWRMAF
MIDLAND AREA WEATHER ROUNDUP
NATIONAL WEATHER SERVICE MIDLAND TX
900 AM CST SAT FEB 06 2016

...IN SOUTHWEST TEXAS AND SOUTHEAST NEW MEXICO...

CITY           SKY/WX    TMP DP  RH WIND       PRES   REMARKS
ALPINE         CLOUDY    36  11  35 SW9       30.50R WCI  29
ANDREWS        FAIR      29  17  61 W6        30.44R WCI  22
ARTESIA        CLOUDY    30  10  43 W5        30.44R WCI  25
BIG SPRING     SUNNY     27  17  66 NW3       30.47R
CARLSBAD       CLOUDY    27  16  63 NW3       30.42S
DRYDEN           N/A     43  18  36 W6        30.45R WCI  39
FORT STOCKTON  SUNNY     37  19  48 SW12      30.45R WCI  29
GUAD PASS      CLOUDY    28   5  37 SW21      30.44R WCI  15
HOBBS          SUNNY     30  19  64 CALM      30.42R
MARFA          CLOUDY    27  11  51 E3        30.48R
MIDLAND AIRPK  SUNNY     32  20  60 W7        30.45R WCI  26
MIDLAND INTL   SUNNY     36  20  52 NW9       30.45R WCI  29
ODESSA         SUNNY     36  19  50 NW8       30.45R WCI  30
PECOS          CLOUDY    24  14  65 CALM      30.47R
PRESIDIO       FAIR      37  10  32 N3        30.50R
SEMINOLE       SUNNY     25  17  72 NW5       30.44R WCI  19
SNYDER           N/A     34  21  59 NW8       30.43R WCI  27
WINK           SUNNY     30  17  58 N3        30.45R
$$
...OTHER STATIONS IN TEXAS...

CITY           SKY/WX    TMP DP  RH WIND       PRES   REMARKS
ABILENE        SUNNY     38  21  50 NW17      30.40R WCI  28
AMARILLO       SUNNY     30  18  60 W8        30.38R WCI  22
AUSTIN         SUNNY     49  27  42 NW16G22   30.36R
BROWNSVILLE    SUNNY     58  50  75 NW10      30.40R
CORPUS CHRISTI SUNNY     54  45  71 NW16      30.40R
DALLAS FTW     LGT RAIN  43  38  82 N10       30.31R WCI  37
DEL RIO        SUNNY     45  24  43 NW9       30.48R
EL PASO        SUNNY     27   7  42 CALM      30.48R
HOUSTON INT    MOSUNNY   48  46  93 CALM      30.31R
LUBBOCK        MOSUNNY   27  18  69 NW6       30.41R WCI  20
SAN ANGELO     SUNNY     37  21  52 W12       30.44R WCI  29
SAN ANTONIO    MOSUNNY   48  27  44 NW14G23   30.40R
WACO           SUNNY     45  33  63 NW15G23   30.29R WCI  38
WICHITA FALLS  NOT AVBL
$$
...OTHER LOCATIONS IN NEW MEXICO...

CITY           SKY/WX    TMP DP  RH WIND       PRES   REMARKS
ALAMAGORDO     CLOUDY    32   3  29 N8        30.47F WCI  25
ALBUQUERQUE    CLOUDY    24  12  60 W6        30.50R WCI  17
CANNON AFB     NOT AVBL
CLOVIS         CLOUDY    25  18  74 CALM      30.37S
HOLLOMAN AFB   CLOUDY    29   6  37 NE6       30.47S WCI  23
ROSWELL        CLOUDY    25  13  60 CALM      30.41S
RUIDOSO          N/A     30   0  27 W7        30.42R WCI  23
SANTA FE       CLOUDY    22   8  55 NW14      30.42R WCI   9
TRUTH OR CONSE SUNNY     28   8  43 N5        30.48R WCI  23
TUCUMCARI      CLOUDY    24  16  71 W7        30.36R WCI  16
$$

USA.gov is the U.S. government's official web portal to all federal, state and local government web resources and services.